Regional Weather Roundup
Issued by NWS

Home | Current Version | Previous Version | Text Only | Print | Product List | Glossary On
Versions: 1 2 3 4 5 6 7 8 9 10 11 12 13 14 15 16 17 18 19 20 21 22 23 24 25 26 27 28 29 30 31 32 33 34 35 36 37 38 39 40 41 42 43 44 45 46 47 48 49 50
000
ASUS44 KFWD 310201
RWRTX
NORTH TEXAS HOURLY WEATHER ROUNDUP
NATIONAL WEATHER SERVICE FORT WORTH TX
900 PM CDT THU OCT 30 2014

NOTE: "FAIR" INDICATES FEW OR NO CLOUDS BELOW 12,000 FEET WITH NO
SIGNIFICANT WEATHER AND/OR OBSTRUCTIONS TO VISIBILITY.

TXZ118-119-310300-
DALLAS/FORT WORTH METROPLEX

CITY           SKY/WX    TMP DP  RH WIND       PRES   REMARKS
DFW AIRPORT    PTCLDY    68  57  68 CALM      30.11R
DALLAS LOVE    PTCLDY    68  59  73 CALM      30.11R
FTW MEACHAM    MOCLDY    70  55  59 N3        30.11R
DAL-EXECUTIVE  MOCLDY    67  57  70 CALM      30.11R
FTW-ALLIANCE   MOCLDY    62  56  80 NW3       30.12R
FTW-NAS-JRB    PTCLDY    74  53  48 CALM      30.16R
ARLINGTON        N/A     72  54  53 N7        30.12R
GRAND PRAIRIE  CLEAR     69  58  68 CALM      30.13R
ADDISON        PTCLDY    66  59  77 CALM      30.11
LANCASTER      MOCLDY    67  54  63 CALM      30.12R
$$

TXZ091>094-102>105-117-120-121-131>134-310300-
NORTH CENTRAL TEXAS

CITY           SKY/WX    TMP DP  RH WIND       PRES   REMARKS
SHRMAN/DENISON CLEAR     64  54  71 CALM      30.13R
BRIDGEPORT     CLEAR     62  58  84 CALM      30.16R
DECATUR        CLEAR     64  57  78 CALM      30.14R
DENTON         CLEAR     61  57  87 NW5       30.12R
MCKINNEY       CLEAR     60  54  80 CALM      30.11R
ROCKWALL       CLEAR     64  56  76 CALM      30.10R
TERRELL        MOCLDY    64  56  75 CALM      30.10S
WAXAHACHIE     MOCLDY    67  56  66 NE5       30.13R
CLEBURNE       PTCLDY    64  64 100 CALM      30.13R
GRANBURY       CLOUDY    68  65  90 N3        30.14R FOG
$$

TXZ083>090-098>101-113>116-127>130-139>142-154-155-310300-
WESTERN NORTH TEXAS

CITY           SKY/WX    TMP DP  RH WIND       PRES   REMARKS
WICHITA FALLS  CLEAR     61  37  41 N10       30.16R
WF-KICKAPOO    CLEAR     64  34  33 N5        30.18R
ABILENE        MOCLDY    73  57  57 NE10      30.17R
ABILENE-DYESS  CLOUDY    72  58  61 NE10      30.16R
MINERAL WELLS  MOCLDY    67  62  84 NE3       30.12R
STEPHENVILLE   MOCLDY    67  61  80 CALM      30.16R
COMANCHE       RAIN      66  65  97 W3        30.15R
COLEMAN        CLOUDY    72  60  66 NE7       30.14R
$$

TXZ143>147-156>162-174-175-310300-
CENTRAL TEXAS

CITY           SKY/WX    TMP DP  RH WIND       PRES   REMARKS
WACO           MOCLDY    64  56  75 NE5       30.11R
WACO-TSTC      PTCLDY    66  55  68 CALM      30.10S
WACO-MCGREGOR  PTCLDY    66  48  52 NE5       30.12R
CORSICANA      CLOUDY    68  52  56 NE6       30.11R
MEXIA          CLOUDY    65  55  69 SW3       30.09S
HEARNE         CLEAR     63  55  77 CALM      30.10R
TEMPLE         CLOUDY    70  52  52 E3        30.08S
KILLEEN        MOCLDY    70  58  64 SE7       30.10R
KILLEEN-SKYLRK PTCLDY    70  54  56 CALM      30.08R
GATESVILLE     PTCLDY    68  57  68 CALM      30.11S
HAMILTON       CLOUDY    70  61  75 CALM      30.13R
LAMPASAS       PTCLDY    71  61  70 CALM      30.10R
$$

TXZ095>097-106>112-122>126-135>138-148>153-164>167-310300-
EAST TEXAS

CITY           SKY/WX    TMP DP  RH WIND       PRES   REMARKS
PARIS          CLEAR     61  46  59 CALM      30.10R
SULPHUR SPRNGS CLEAR     62  51  66 W3        30.12R
MOUNT PLEASANT CLEAR     57  53  84 CALM      30.10S
MINEOLA        CLEAR     59  52  77 CALM      30.10S
TYLER          PTCLDY    63  52  67 CALM      30.10R
LONGVIEW       CLEAR     58  51  78 CALM      30.08S
MARSHALL       CLEAR     57  53  86 CALM      30.11R
ATHENS         CLOUDY    61  55  82 CALM      30.09S
PALESTINE      PTCLDY    63  56  80 CALM      30.10S
JACKSONVILLE   MOCLDY    67  46  47 CALM      30.11S
HENDERSON      CLEAR     56  54  91 CALM      30.11R
NACOGDOCHES    MOCLDY    57  52  82 CALM      30.09F
LUFKIN         PTCLDY    61  53  75 CALM      30.09S
$$

SUPPLEMENTAL OBSERVATIONS (CENTRAL)

CITY           SKY/WX    TMP DP  RH WIND       PRES   REMARKS
$$

SUPPLEMENTAL OBSERVATIONS (WEST)

CITY           SKY/WX    TMP DP  RH WIND       PRES   REMARKS
$$

SUPPLEMENTAL OBSERVATIONS (EAST)

CITY           SKY/WX    TMP DP  RH WIND       PRES   REMARKS
$$

SUPPLEMENTAL OBSERVATIONS ARE A COLLECTION OF AUTOMATED INSTRUMENTS
THAT ARE MAINTAINED BY A VARIETY OF FEDERAL AND STATE AGENCIES.
CERTAIN ELEMENTS...SUCH AS HUMIDITY VALUES AND SUSTAINED WIND
SPEEDS...MAY BE APPROXIMATED.




USA.gov is the U.S. government's official web portal to all federal, state and local government web resources and services.